International Falls, MN

8:47 AM CDT on July 21, 2017 (GMT -0500)
Falls International

Weather History for KINL - February, 2014

Change the Weather History Date:

Sunday, February 9, 2014

  Actual Average Record
Temperature  
Mean Temperature -12 °F 8 °F  
Max Temperature -4 °F 20 °F 48 °F (1976)
Min Temperature -20 °F -4 °F -36 °F (1909)
Degree Days  
Heating Degree Days 77 57  
Month to date heating degree days 652 522  
Since 1 July heating degree days 7267 6575  
Cooling Degree Days 0 0  
Month to date cooling degree days 0 0  
Year to date cooling degree days 0 0  
Moisture  
Dew Point -19 °F    
Average Humidity 67    
Maximum Humidity 81    
Minimum Humidity 52    
Precipitation  
Precipitation T in 0.02 in 0.34 in (1966)
Month to date precipitation 0.03 0.15  
Year to date precipitation 0.85 0.77  
Snow  
Snow T in 0.30 in 6.60 in (1985)
Month to date snowfall 0.7 3.4  
Since 1 July snowfall 54.9 49.4  
Snow Depth 20.00 in    
Sea Level Pressure  
Sea Level Pressure 30.34 in    
Wind  
Wind Speed 8 mph (WNW)    
Max Wind Speed 17 mph    
Max Gust Speed 24 mph    
Visibility 10 miles    
Events      
T = Trace of Precipitation, MM = Missing Value Source: NWS Daily Summary

Daily Weather History Graph

Daily Weather History Graph

Search for Another Location

Airport or City:

Trip Planner

Search our weather history database for the weather conditions in past years. The results will help you decide how hot, cold, wet, or windy it might be!

Date:

Astronomy

Feb. 09, 2014 Rise Set
Actual Time 7:30 AM CST 5:25 PM CST
Civil Twilight 6:58 AM CST 5:58 PM CST
Nautical Twilight 6:21 AM CST 6:35 PM CST
Astronomical Twilight 5:44 AM CST 7:11 PM CST
Moon 12:57 PM CST (2/9) 3:45 AM CST (2/9)
Length of Visible Light 11h 00m
Length of Day
9h 54m
Waxing Gibbous, 77% of the Moon is Illuminated
Feb 9
Waxing Gibbous
Feb 14
Full
Feb 22
Last Quarter
Mar 1
New
Mar 8
First Quarter

Hourly Weather History & Observations

Time (CST) Temp. Windchill Dew Point Humidity Pressure Visibility Wind Dir Wind Speed Gust Speed Precip Events Conditions
12:55 AM -9.9 °F -24.9 °F -17.0 °F 71% 30.28 in 10.0 mi WNW 6.9 mph - N/A   Clear
1:55 AM -11.9 °F -21.5 °F -17.0 °F 78% 30.29 in 10.0 mi WNW 3.5 mph - N/A   Clear
2:55 AM -16.1 °F -28.6 °F -20.9 °F 79% 30.30 in 10.0 mi West 4.6 mph - N/A   Clear
3:55 AM -18.0 °F -33.0 °F -23.1 °F 78% 30.29 in 10.0 mi WNW 5.8 mph - N/A   Clear
4:55 AM -16.1 °F -28.6 °F -22.0 °F 74% 30.30 in 10.0 mi WNW 4.6 mph - N/A   Clear
5:55 AM -16.1 °F -30.6 °F -22.0 °F 74% 30.31 in 10.0 mi West 5.8 mph - N/A   Clear
6:55 AM -18.9 °F -29.5 °F -25.1 °F 74% 30.32 in 10.0 mi West 3.5 mph - N/A   Clear
7:55 AM -18.9 °F -32.0 °F -25.1 °F 74% 30.33 in 10.0 mi West 4.6 mph - N/A   Clear
8:55 AM -15.0 °F -27.4 °F -20.0 °F 78% 30.33 in 10.0 mi West 4.6 mph - N/A   Clear
9:55 AM -9.9 °F -21.5 °F -17.0 °F 71% 30.34 in 10.0 mi West 4.6 mph - N/A   Clear
10:55 AM -7.1 °F -25.9 °F -16.1 °F 65% 30.33 in 10.0 mi WNW 11.5 mph 18.4 mph N/A   Clear
11:11 AM -6.0 °F -23.6 °F -16.1 °F 62% 30.21 in 10.0 mi West 10.4 mph - N/A   Mostly Cloudy
11:55 AM -6.0 °F -27.0 °F -16.1 °F 62% 30.33 in 10.0 mi WNW 15.0 mph 24.2 mph N/A   Overcast
12:55 PM -5.1 °F -23.5 °F -16.1 °F 59% 30.33 in 8.0 mi WNW 11.5 mph - N/A   Overcast
1:55 PM -5.1 °F -25.1 °F -17.0 °F 57% 30.33 in 9.0 mi WNW 13.8 mph - N/A   Overcast
2:55 PM -4.0 °F -23.7 °F -17.0 °F 54% 30.34 in 10.0 mi WNW 13.8 mph - N/A   Overcast
3:55 PM -4.0 °F -23.0 °F -17.0 °F 54% 30.35 in 10.0 mi WNW 12.7 mph - N/A   Scattered Clouds
4:55 PM -5.1 °F -20.4 °F -18.0 °F 54% 30.35 in 10.0 mi WNW 8.1 mph - N/A   Clear
5:55 PM -8.0 °F -19.2 °F -18.9 °F 59% 30.37 in 10.0 mi West 4.6 mph - N/A   Clear
6:55 PM -9.0 °F -20.4 °F -18.0 °F 65% 30.39 in 10.0 mi West 4.6 mph - N/A   Clear
7:55 PM -11.0 °F -24.6 °F -18.9 °F 68% 30.39 in 10.0 mi West 5.8 mph - N/A   Clear
8:55 PM -11.0 °F -28.8 °F -18.9 °F 68% 30.40 in 10.0 mi West 9.2 mph - N/A   Clear
9:55 PM -11.9 °F -28.7 °F -18.9 °F 71% 30.40 in 10.0 mi West 8.1 mph - N/A   Partly Cloudy
10:55 PM -13.0 °F -28.6 °F -20.0 °F 71% 30.41 in 10.0 mi West 6.9 mph - N/A   Mostly Cloudy
11:55 PM -14.1 °F -29.9 °F -20.0 °F 75% 30.43 in 10.0 mi West 6.9 mph - N/A   Clear